Track GOSAT (IBUKI) now! 10-day predictions GOSAT (IBUKI) is classified as:
1 33492U 09002A 23276.87221590 .00003137 00000-0 56104-3 0 9999 2 33492 98.0201 28.4924 0001129 98.4721 261.6612 14.67570198787112